This demonstration page uses our WeatherBlox Daily Observations layout. Learn more.

Left ArrowRight Arrow

34.74481, -87.66753

Hourly Observations for February 3, 2021

Temp ( °F °C ) Dew Point ( °F °C ) Humidity (%) Winds ( mph kmh ) Pressure ( in mb ) Visibility ( mi km ) Precip ( " mm )
12:53 am 00:53 Clear 33 0.6 21 -6.1 61 61 N 3 6 30.18 1022 10 16 0.00 0.00
1:53 am 01:53 Clear 32 0 20 -6.7 61 61 NE 5 7 30.17 1022 10 16 0.00 0.00
2:53 am 02:53 Clear 31 -0.6 20 -6.7 64 64 NNE 6 9 30.16 1022 10 16 0.00 0.00
3:53 am 03:53 Clear 31 -0.6 20 -6.7 64 64 NE 5 7 30.16 1022 10 16 0.00 0.00
4:53 am 04:53 Clear 30 -1.1 19 -7.2 64 64 Calm 30.17 1022 10 16 0.00 0.00
5:53 am 05:53 Clear 27 -2.8 19 -7.2 72 72 Calm 30.19 1022 10 16 0.00 0.00
6:53 am 06:53 Sunny 26 -3.3 18 -7.8 71 71 Calm 30.19 1023 10 16 0.00 0.00
7:53 am 07:53 Sunny 32 0 22 -5.6 66 66 N 3 6 30.20 1023 10 16 0.00 0.00
8:53 am 08:53 Sunny 36 2.2 22 -5.6 57 57 NNE 7 11 30.22 1024 10 16 0.00 0.00
9:53 am 09:53 Sunny 36 2.2 22 -5.6 57 57 VRB 5 7 30.22 1023 10 16 0.00 0.00
10:15 am 10:15 Hazy 39 3.9 23 -5 53 53 NE 9 15 30.23 1024 0 0 0.00 0.00
10:20 am 10:20 Hazy 39 3.9 22 -5.6 50 50 VRB 7 11 30.23 1024 1 2 0.00 0.00
10:27 am 10:27 Sunny 40 4.4 23 -5 51 51 VRB 3 6 30.23 1024 10 16 0.00 0.00
10:53 am 10:53 Sunny 41 5 23 -5 49 49 NE 7 11 30.20 1023 10 16 0.00 0.00
11:53 am 11:53 Sunny 44 6.7 22 -5.6 41 41 undefined N/A 30.17 1022 10 16 0.00 0.00
12:53 pm 12:53 Sunny 46 7.8 22 -5.6 38 38 VRB 3 6 30.14 1021 10 16 0.00 0.00
3:53 pm 15:53 Sunny 50 10 20 -6.7 30 30 SE 5 7 30.10 1019 10 16 0.00 0.00
4:53 pm 16:53 Sunny 48 8.9 22 -5.6 36 36 S 3 6 30.11 1020 10 16 0.00 0.00
5:53 pm 17:53 Clear 41 5 23 -5 49 49 SE 3 6 30.09 1019 10 16 0.00 0.00
6:53 pm 18:53 Clear 38 3.3 26 -3.3 62 62 SE 5 7 30.09 1019 10 16 0.00 0.00
7:53 pm 19:53 Clear 38 3.3 23 -5 55 55 SE 5 7 30.08 1019 10 16 0.00 0.00
8:53 pm 20:53 Clear 35 1.7 22 -5.6 59 59 SSE 3 6 30.07 1018 10 16 0.00 0.00
9:53 pm 21:53 Clear 34 1.1 23 -5 64 64 SE 3 6 30.07 1018 10 16 0.00 0.00
10:53 pm 22:53 Clear 33 0.6 24 -4.4 70 70 Calm 30.06 1018 10 16 0.00 0.00
11:53 pm 23:53 Clear 33 0.6 23 -5 66 66 Calm 30.06 1018 10 16 0.00 0.00

Powered by AerisWeather